Quakertown, PA

11:07 AM EDT on October 19, 2019 (GMT -0400)
Quakertown

Weather History for KUKT - September, 2019

Change the Weather History Date:

Thursday, September 19, 2019

  Actual Average (WUND) Record (WUND)
Temperature  
Mean Temperature 56 °F -  
Max Temperature 69 °F - - (-1)
Min Temperature 42 °F - - (-1)
Degree Days  
Heating Degree Days 10    
Growing Degree Days 6 (Base 50)    
Moisture  
Dew Point 44 °F    
Average Humidity 73    
Maximum Humidity 100    
Minimum Humidity 33    
Precipitation  
Precipitation 0.00 in - - ()
Sea Level Pressure  
Sea Level Pressure 30.33 in    
Wind  
Wind Speed 0 mph (SSE)    
Max Wind Speed 6 mph    
Max Gust Speed 12 mph    
Visibility 10 miles    
Events      
Averages and records for this station are not official NWS values.
T = Trace of Precipitation, MM = Missing Value Source: NWS Daily Summary

Daily Weather History Graph

Daily Weather History Graph

Search for Another Location

Airport or City:

Astronomy

Sep. 19, 2019 Rise Set
Actual Time 6:45 AM EDT 7:04 PM EDT
Civil Twilight 6:18 AM EDT 7:31 PM EDT
Nautical Twilight 5:46 AM EDT 8:03 PM EDT
Astronomical Twilight 5:13 AM EDT 8:35 PM EDT
Moon 10:10 PM EDT 11:47 AM EDT
Length of Visible Light 13h 12m
Length of Day
12h 18m
Waning Gibbous, 74% of the Moon is Illuminated
Sep 19
Waning Gibbous
Sep 21
Last Quarter
Sep 28
New
Oct 5
First Quarter
Oct 13
Full

Hourly Weather History & Observations

Time (EDT) Temp. Dew Point Humidity Pressure Visibility Wind Dir Wind Speed Gust Speed Precip Events Conditions
12:00 AM 51.8 °F 50.0 °F 94% 30.32 in 10.0 mi Calm Calm - N/A   Clear
12:15 AM 50.0 °F 50.0 °F 100% 30.32 in 10.0 mi Calm Calm - N/A   Clear
12:20 AM 50.0 °F 50.0 °F 100% 30.32 in 10.0 mi Calm Calm - N/A   Clear
12:35 AM 50.0 °F 48.2 °F 94% 30.32 in 10.0 mi Calm Calm - N/A   Clear
12:40 AM 50.0 °F 48.2 °F 94% 30.31 in 10.0 mi Calm Calm - N/A   Clear
12:55 AM 50.0 °F 48.2 °F 94% 30.32 in 10.0 mi Calm Calm - N/A   Clear
1:15 AM 48.2 °F 48.2 °F 100% 30.32 in 10.0 mi Calm Calm - N/A   Clear
1:20 AM 48.2 °F 48.2 °F 100% 30.33 in 10.0 mi Calm Calm - N/A   Clear
1:35 AM 48.2 °F 48.2 °F 100% 30.32 in 10.0 mi Calm Calm - N/A   Clear
1:40 AM 48.2 °F 48.2 °F 100% 30.32 in 10.0 mi Calm Calm - N/A   Clear
1:55 AM 48.2 °F 46.4 °F 93% 30.32 in 10.0 mi Calm Calm - N/A   Clear
2:00 AM 48.2 °F 46.4 °F 93% 30.32 in 10.0 mi Calm Calm - N/A   Clear
2:15 AM 48.2 °F 46.4 °F 93% 30.32 in 10.0 mi Calm Calm - N/A   Clear
2:20 AM 48.2 °F 48.2 °F 100% 30.32 in 10.0 mi Calm Calm - N/A   Clear
2:35 AM 46.4 °F 46.4 °F 100% 30.32 in 10.0 mi Calm Calm - N/A   Clear
2:55 AM 46.4 °F 46.4 °F 100% 30.32 in 10.0 mi Calm Calm - N/A   Clear
3:00 AM 46.4 °F 46.4 °F 100% 30.32 in 10.0 mi Calm Calm - N/A   Clear
3:15 AM 46.4 °F 46.4 °F 100% 30.32 in 10.0 mi Calm Calm - N/A   Clear
3:20 AM 46.4 °F 46.4 °F 100% 30.32 in 10.0 mi Calm Calm - N/A   Clear
3:35 AM 46.4 °F 46.4 °F 100% 30.32 in 10.0 mi Calm Calm - N/A   Clear
3:40 AM 44.6 °F 44.6 °F 100% 30.33 in 10.0 mi Calm Calm - N/A   Clear
3:55 AM 44.6 °F 44.6 °F 100% 30.33 in 10.0 mi Calm Calm - N/A   Clear
4:00 AM 44.6 °F 44.6 °F 100% 30.32 in 10.0 mi Calm Calm - N/A   Clear
4:15 AM 44.6 °F 44.6 °F 100% 30.33 in 10.0 mi Calm Calm - N/A   Clear
4:35 AM 44.6 °F 44.6 °F 100% 30.34 in 10.0 mi Calm Calm - N/A   Clear
4:40 AM 44.6 °F 44.6 °F 100% 30.34 in 10.0 mi Calm Calm - N/A   Clear
4:55 AM 44.6 °F 44.6 °F 100% 30.34 in 10.0 mi Calm Calm - N/A   Clear
5:00 AM 44.6 °F 44.6 °F 100% 30.34 in 10.0 mi Calm Calm - N/A   Clear
5:15 AM 44.6 °F 44.6 °F 100% 30.34 in 10.0 mi Calm Calm - N/A   Clear
5:20 AM 44.6 °F 44.6 °F 100% 30.34 in 10.0 mi Calm Calm - N/A   Clear
5:35 AM 42.8 °F 42.8 °F 100% 30.33 in 10.0 mi Calm Calm - N/A   Clear
5:40 AM 42.8 °F 42.8 °F 100% 30.33 in 10.0 mi Calm Calm - N/A   Clear
6:15 AM 42.8 °F 42.8 °F 100% 30.34 in 10.0 mi Calm Calm - N/A   Clear
6:20 AM 42.8 °F 42.8 °F 100% 30.34 in 10.0 mi Calm Calm - N/A   Clear
6:35 AM 42.8 °F 42.8 °F 100% 30.35 in 10.0 mi Calm Calm - N/A   Clear
6:40 AM 42.8 °F 42.8 °F 100% 30.35 in 10.0 mi Calm Calm - N/A   Clear
6:55 AM 42.8 °F 42.8 °F 100% 30.35 in 10.0 mi Calm Calm - N/A   Clear
7:00 AM 42.8 °F 42.8 °F 100% 30.35 in 10.0 mi Calm Calm - N/A   Clear
7:15 AM 42.8 °F 42.8 °F 100% 30.35 in 10.0 mi Calm Calm - N/A   Clear
7:20 AM 42.8 °F 42.8 °F 100% 30.35 in 10.0 mi Calm Calm - N/A   Clear
7:35 AM 44.6 °F 44.6 °F 100% 30.35 in 10.0 mi Calm Calm - N/A   Clear
7:55 AM 46.4 °F 44.6 °F 93% 30.36 in 10.0 mi Calm Calm - N/A   Clear
8:00 AM 46.4 °F 46.4 °F 100% 30.36 in 10.0 mi Calm Calm - N/A   Clear
8:15 AM 50.0 °F 48.2 °F 94% 30.37 in 10.0 mi Calm Calm - N/A   Clear
8:20 AM 50.0 °F 48.2 °F 94% 30.37 in 10.0 mi Calm Calm - N/A   Clear
8:35 AM 51.8 °F 48.2 °F 88% 30.38 in 10.0 mi Calm Calm - N/A   Clear
8:40 AM 51.8 °F 46.4 °F 82% 30.38 in 10.0 mi Calm Calm - N/A   Clear
8:55 AM 53.6 °F 46.4 °F 77% 30.38 in 10.0 mi Calm Calm - N/A   Clear
9:00 AM 53.6 °F 46.4 °F 77% 30.38 in 10.0 mi ENE 3.5 mph - N/A   Clear
9:15 AM 55.4 °F 46.4 °F 72% 30.38 in 10.0 mi Calm Calm - N/A   Clear
9:35 AM 57.2 °F 46.4 °F 67% 30.38 in 10.0 mi Calm Calm - N/A   Clear
9:40 AM 57.2 °F 46.4 °F 67% 30.38 in 10.0 mi Calm Calm - N/A   Clear
9:55 AM 57.2 °F 44.6 °F 63% 30.39 in 10.0 mi Calm Calm - N/A   Clear
10:00 AM 57.2 °F 44.6 °F 63% 30.39 in 10.0 mi NNE 4.6 mph - N/A   Clear
10:15 AM 59.0 °F 44.6 °F 59% 30.38 in 10.0 mi Calm Calm - N/A   Clear
10:20 AM 59.0 °F 44.6 °F 59% 30.38 in 10.0 mi Variable 3.5 mph - N/A   Clear
10:35 AM 60.8 °F 44.6 °F 55% 30.38 in 10.0 mi Variable 4.6 mph - N/A   Clear
10:40 AM 60.8 °F 42.8 °F 52% 30.38 in 10.0 mi East 4.6 mph - N/A   Clear
10:55 AM 60.8 °F 42.8 °F 52% 30.38 in 10.0 mi Variable 4.6 mph - N/A   Clear
11:15 AM 60.8 °F 42.8 °F 52% 30.37 in 10.0 mi Calm Calm - N/A   Clear
11:20 AM 60.8 °F 42.8 °F 52% 30.37 in 10.0 mi Calm Calm - N/A   Clear
11:35 AM 62.6 °F 41.0 °F 45% 30.37 in 10.0 mi Variable 5.8 mph - N/A   Clear
11:40 AM 62.6 °F 41.0 °F 45% 30.37 in 10.0 mi Calm Calm 11.5 mph N/A   Clear
11:55 AM 64.4 °F 42.8 °F 45% 30.36 in 10.0 mi Variable 5.8 mph - N/A   Clear
12:00 PM 64.4 °F 42.8 °F 45% 30.36 in 10.0 mi Variable 5.8 mph - N/A   Clear
12:15 PM 64.4 °F 42.8 °F 45% 30.36 in 10.0 mi Calm Calm - N/A   Clear
12:20 PM 64.4 °F 42.8 °F 45% 30.36 in 10.0 mi Calm Calm - N/A   Clear
12:35 PM 64.4 °F 42.8 °F 45% 30.36 in 10.0 mi Variable 3.5 mph - N/A   Clear
12:55 PM 66.2 °F 41.0 °F 40% 30.35 in 10.0 mi Calm Calm - N/A   Clear
1:15 PM 66.2 °F 39.2 °F 37% 30.34 in 10.0 mi Variable 4.6 mph - N/A   Clear
1:20 PM 66.2 °F 37.4 °F 35% 30.34 in 10.0 mi East 4.6 mph - N/A   Clear
1:35 PM 66.2 °F 37.4 °F 35% 30.34 in 10.0 mi Calm Calm - N/A   Clear
1:40 PM 66.2 °F 39.2 °F 37% 30.34 in 10.0 mi Calm Calm - N/A   Clear
1:55 PM 68.0 °F 41.0 °F 37% 30.34 in 10.0 mi Variable 4.6 mph - N/A   Clear
2:00 PM 68.0 °F 39.2 °F 35% 30.34 in 10.0 mi Calm Calm - N/A   Clear
2:15 PM 68.0 °F 37.4 °F 33% 30.33 in 10.0 mi Calm Calm - N/A   Clear
2:35 PM 68.0 °F 39.2 °F 35% 30.33 in 10.0 mi Variable 3.5 mph - N/A   Clear
2:40 PM 68.0 °F 39.2 °F 35% 30.33 in 10.0 mi Calm Calm - N/A   Clear
2:55 PM 68.0 °F 37.4 °F 33% 30.32 in 10.0 mi Calm Calm - N/A   Clear
3:00 PM 68.0 °F 39.2 °F 35% 30.32 in 10.0 mi Variable 4.6 mph - N/A   Clear
3:15 PM 69.8 °F 39.2 °F 33% 30.32 in 10.0 mi Calm Calm - N/A   Clear
3:20 PM 69.8 °F 39.2 °F 33% 30.31 in 10.0 mi Calm Calm - N/A   Clear
3:35 PM 69.8 °F 39.2 °F 33% 30.31 in 10.0 mi Calm Calm - N/A   Clear
3:40 PM 69.8 °F 39.2 °F 33% 30.32 in 10.0 mi Calm Calm - N/A   Clear
3:55 PM 69.8 °F 39.2 °F 33% 30.32 in 10.0 mi Calm Calm - N/A   Clear
4:15 PM 69.8 °F 39.2 °F 33% 30.32 in 10.0 mi Calm Calm - N/A   Clear
4:20 PM 69.8 °F 39.2 °F 33% 30.31 in 10.0 mi Variable 3.5 mph - N/A   Clear
4:35 PM 69.8 °F 39.2 °F 33% 30.30 in 10.0 mi WSW 4.6 mph - N/A   Clear
4:40 PM 69.8 °F 39.2 °F 33% 30.30 in 10.0 mi SW 4.6 mph - N/A   Clear
4:55 PM 69.8 °F 39.2 °F 33% 30.30 in 10.0 mi Calm Calm - N/A   Clear
5:00 PM 69.8 °F 39.2 °F 33% 30.31 in 10.0 mi West 4.6 mph - N/A   Clear
5:15 PM 69.8 °F 39.2 °F 33% 30.30 in 10.0 mi Calm Calm - N/A   Clear
5:20 PM 69.8 °F 39.2 °F 33% 30.31 in 10.0 mi Calm Calm - N/A   Clear
5:35 PM 69.8 °F 39.2 °F 33% 30.30 in 10.0 mi Calm Calm - N/A   Clear
5:55 PM 69.8 °F 39.2 °F 33% 30.30 in 10.0 mi Calm Calm - N/A   Clear
6:00 PM 69.8 °F 39.2 °F 33% 30.30 in 10.0 mi Calm Calm - N/A   Clear
6:15 PM 68.0 °F 39.2 °F 35% 30.31 in 10.0 mi Calm Calm - N/A   Clear
6:20 PM 68.0 °F 39.2 °F 35% 30.31 in 10.0 mi Calm Calm - N/A   Clear
6:35 PM 66.2 °F 46.4 °F 49% 30.31 in 10.0 mi Calm Calm - N/A   Clear
6:40 PM 66.2 °F 48.2 °F 52% 30.31 in 10.0 mi Calm Calm - N/A   Clear
6:55 PM 60.8 °F 50.0 °F 68% 30.31 in 10.0 mi Calm Calm - N/A   Clear
7:00 PM 59.0 °F 48.2 °F 67% 30.31 in 10.0 mi Calm Calm - N/A   Clear
7:15 PM 59.0 °F 48.2 °F 67% 30.30 in 10.0 mi Calm Calm - N/A   Clear
7:35 PM 55.4 °F 48.2 °F 77% 30.30 in 10.0 mi Calm Calm - N/A   Clear
7:40 PM 55.4 °F 48.2 °F 77% 30.30 in 10.0 mi Calm Calm - N/A   Clear
7:55 PM 53.6 °F 46.4 °F 77% 30.30 in 10.0 mi Calm Calm - N/A   Clear
8:00 PM 53.6 °F 46.4 °F 77% 30.30 in 10.0 mi Calm Calm - N/A   Clear
8:15 PM 53.6 °F 46.4 °F 77% 30.30 in 10.0 mi Calm Calm - N/A   Clear
8:20 PM 53.6 °F 48.2 °F 82% 30.30 in 10.0 mi Calm Calm - N/A   Clear
8:35 PM 51.8 °F 48.2 °F 88% 30.30 in 10.0 mi Calm Calm - N/A   Clear
8:40 PM 51.8 °F 48.2 °F 88% 30.30 in 10.0 mi Calm Calm - N/A   Clear
8:55 PM 50.0 °F 46.4 °F 87% 30.31 in 10.0 mi SSW 3.5 mph - N/A   Clear
9:15 PM 50.0 °F 46.4 °F 87% 30.30 in 10.0 mi Calm Calm - N/A   Clear
9:20 PM 50.0 °F 48.2 °F 94% 30.30 in 10.0 mi Calm Calm - N/A   Clear
9:35 PM 50.0 °F 46.4 °F 87% 30.30 in 10.0 mi Calm Calm - N/A   Clear
9:40 PM 50.0 °F 46.4 °F 87% 30.30 in 10.0 mi Calm Calm - N/A   Clear
9:55 PM 48.2 °F 46.4 °F 93% 30.30 in 10.0 mi Calm Calm - N/A   Clear
10:00 PM 48.2 °F 46.4 °F 93% 30.30 in 10.0 mi Calm Calm - N/A   Clear
10:15 PM 48.2 °F 46.4 °F 93% 30.29 in 10.0 mi Calm Calm - N/A   Clear
10:20 PM 48.2 °F 46.4 °F 93% 30.29 in 10.0 mi Calm Calm - N/A   Clear
10:35 PM 48.2 °F 46.4 °F 93% 30.30 in 10.0 mi Calm Calm - N/A   Clear
10:55 PM 46.4 °F 46.4 °F 100% 30.30 in 10.0 mi Calm Calm - N/A   Clear
11:00 PM 46.4 °F 46.4 °F 100% 30.30 in 10.0 mi Calm Calm - N/A   Clear
11:15 PM 46.4 °F 44.6 °F 93% 30.30 in 10.0 mi Calm Calm - N/A   Clear
11:20 PM 46.4 °F 46.4 °F 100% 30.30 in 10.0 mi Calm Calm - N/A   Clear
11:35 PM 46.4 °F 44.6 °F 93% 30.29 in 10.0 mi Calm Calm - N/A   Clear
11:40 PM 46.4 °F 44.6 °F 93% 30.29 in 10.0 mi Calm Calm - N/A   Clear
11:55 PM 46.4 °F 46.4 °F 100% 30.29 in 10.0 mi Calm Calm - N/A   Clear